{"data":{"norad_id":60918,"intl_designator":"2024-154R","name":"STARLINK-32317","alt_names":[],"object_type":"PAYLOAD","status":"ACTIVE","operator":null,"country":"US","launch_date":"2024-08-31","launch_site_code":"AFETR","launch_vehicle":null,"mission":null,"orbit_class":"UNKNOWN","rcs_meters":null,"size_class":null,"mass_kg":null,"dimensions":null,"purposes":["comms"],"wikipedia_slug":null,"has_3d_model":false,"image_url":null,"decayed_at":null,"tle_current":{"epoch":"2026-09-21T18:49:30.662688Z","epoch_age_seconds":77596,"freshness":"FRESH","line1":"1 60918U 24154R   26264.78438267 -.00000563  00000+0 -55409-5 0  9998","line2":"2 60918  53.1608  91.8941 0001340  87.3550 272.7606 15.34386250116372","mean_motion":15.3438625,"eccentricity":0.000134,"inclination_deg":53.1608,"raan_deg":91.8941,"arg_perigee_deg":87.355,"mean_anomaly_deg":272.7606,"bstar":-5.5409e-6,"rev_number":11637,"period_min":93.848599073408,"perigee_km":461.82743034145,"apogee_km":463.6607864785,"semimajor_km":6840.88110841,"source":"CELESTRAK","updated_at":"2026-09-22T09:00:49.286219Z"}}}